Time,TemperatureF,DewpointF,PressureIn,WindDirection,WindDirectionDegrees,WindSpeedMPH,WindSpeedGustMPH,Humidity,HourlyPrecipIn,Conditions,Clouds,dailyrainin,SolarRadiationWatts/m^2,SoftwareType,DateUTC
2013-07-16 00:01:00,78.2,72.6,30.24,NNE,15,0.0,0.0,83,0.00,,,0.00,0,Wunderground v.1.15,2013-07-16 04:01:00,
2013-07-16 00:02:00,78.1,72.5,30.24,NNE,15,0.0,0.0,83,0.00,,,0.00,0,Wunderground v.1.15,2013-07-16 04:02:00,
2013-07-16 00:04:00,78.1,72.5,30.25,NNE,15,0.0,0.0,83,0.00,,,0.00,0,Wunderground v.1.15,2013-07-16 04:04:00,
2013-07-16 00:05:00,78.1,72.5,30.24,NNE,15,0.0,0.0,83,0.00,,,0.00,0,Wunderground v.1.15,2013-07-16 04:05:00,
2013-07-16 00:10:00,77.9,72.7,30.25,NNE,15,0.0,0.0,84,0.00,,,0.00,0,Wunderground v.1.15,2013-07-16 04:10:00,
2013-07-16 00:16:00,77.8,73.0,30.25,NNE,15,0.0,0.0,84,0.00,,,0.00,0,weatherlink.com 1.10,2013-07-16 04:16:00,
2013-07-16 00:21:00,77.7,72.5,30.25,NNE,15,0.0,0.0,84,0.00,,,0.00,0,Wunderground v.1.15,2013-07-16 04:21:00,
2013-07-16 00:27:00,77.6,72.4,30.25,NNE,15,0.0,0.0,84,0.00,,,0.00,0,Wunderground v.1.15,2013-07-16 04:27:00,
2013-07-16 00:33:00,77.5,72.3,30.25,NNE,15,0.0,0.0,84,0.00,,,0.00,0,Wunderground v.1.15,2013-07-16 04:33:00,
2013-07-16 00:39:00,77.4,72.2,30.25,NNE,15,0.0,0.0,84,0.00,,,0.00,0,Wunderground v.1.15,2013-07-16 04:39:00,
2013-07-16 00:44:00,77.3,72.4,30.25,NNE,15,0.0,0.0,85,0.00,,,0.00,0,Wunderground v.1.15,2013-07-16 04:44:00,
2013-07-16 00:50:00,77.2,72.3,30.25,NNE,15,0.0,0.0,85,0.00,,,0.00,0,Wunderground v.1.15,2013-07-16 04:50:00,
2013-07-16 00:56:00,77.2,72.3,30.25,NNE,15,0.0,0.0,85,0.00,,,0.00,0,Wunderground v.1.15,2013-07-16 04:56:00,
2013-07-16 01:01:00,77.2,72.0,30.24,NNE,15,0.0,0.0,85,0.00,,,0.00,0,weatherlink.com 1.10,2013-07-16 05:01:00,
2013-07-16 01:06:00,77.1,72.2,30.24,NNE,15,0.0,0.0,85,0.00,,,0.00,0,Wunderground v.1.15,2013-07-16 05:06:00,
2013-07-16 01:12:00,77.1,72.2,30.25,NNE,15,0.0,0.0,85,0.00,,,0.00,0,Wunderground v.1.15,2013-07-16 05:12:00,
2013-07-16 01:18:00,77.1,72.6,30.24,NNE,15,0.0,0.0,86,0.00,,,0.00,0,Wunderground v.1.15,2013-07-16 05:18:00,
2013-07-16 01:24:00,77.1,72.6,30.24,NNE,15,0.0,0.0,86,0.00,,,0.00,0,Wunderground v.1.15,2013-07-16 05:24:00,
2013-07-16 01:29:00,77.0,72.5,30.24,NNE,15,0.0,0.0,86,0.00,,,0.00,0,Wunderground v.1.15,2013-07-16 05:29:00,
2013-07-16 01:35:00,77.0,72.5,30.24,NNE,15,0.0,0.0,86,0.00,,,0.00,0,Wunderground v.1.15,2013-07-16 05:35:00,
2013-07-16 01:41:00,76.9,72.7,30.24,NNE,15,0.0,0.0,87,0.00,,,0.00,0,Wunderground v.1.15,2013-07-16 05:41:00,
2013-07-16 01:47:00,76.9,73.0,30.24,NNE,15,0.0,0.0,87,0.00,,,0.00,0,weatherlink.com 1.10,2013-07-16 05:47:00,
2013-07-16 01:52:00,76.8,72.6,30.24,NNE,15,0.0,0.0,87,0.00,,,0.00,0,Wunderground v.1.15,2013-07-16 05:52:00,
2013-07-16 01:57:00,76.8,72.6,30.24,NNE,15,0.0,1.0,87,0.00,,,0.00,0,Wunderground v.1.15,2013-07-16 05:57:00,
2013-07-16 02:02:00,76.7,72.5,30.25,NNE,15,0.0,0.0,87,0.00,,,0.00,0,Wunderground v.1.15,2013-07-16 06:02:00,
2013-07-16 02:07:00,76.7,72.5,30.25,NNE,15,0.0,0.0,87,0.00,,,0.00,0,Wunderground v.1.15,2013-07-16 06:07:00,
2013-07-16 02:12:00,76.6,72.8,30.24,NNE,15,0.0,0.0,88,0.00,,,0.00,0,Wunderground v.1.15,2013-07-16 06:12:00,
2013-07-16 02:17:00,76.6,72.8,30.25,NNE,15,0.0,0.0,88,0.00,,,0.00,0,Wunderground v.1.15,2013-07-16 06:17:00,
2013-07-16 02:22:00,76.5,72.7,30.25,NNE,15,0.0,0.0,88,0.00,,,0.00,0,Wunderground v.1.15,2013-07-16 06:22:00,
2013-07-16 02:27:00,76.4,72.6,30.25,NNE,15,0.0,0.0,88,0.00,,,0.00,0,Wunderground v.1.15,2013-07-16 06:27:00,
2013-07-16 02:32:00,76.3,72.5,30.25,NNE,15,0.0,0.0,88,0.00,,,0.00,0,Wunderground v.1.15,2013-07-16 06:32:00,
2013-07-16 02:37:00,76.3,72.8,30.25,NNE,15,0.0,0.0,89,0.00,,,0.00,0,Wunderground v.1.15,2013-07-16 06:37:00,
2013-07-16 02:42:00,76.2,72.4,30.24,NNE,15,0.0,0.0,88,0.00,,,0.00,0,Wunderground v.1.15,2013-07-16 06:42:00,
2013-07-16 02:47:00,76.1,72.6,30.24,NNE,15,0.0,0.0,89,0.00,,,0.00,0,Wunderground v.1.15,2013-07-16 06:47:00,
2013-07-16 02:52:00,75.9,72.1,30.24,NNE,15,0.0,0.0,88,0.00,,,0.00,0,Wunderground v.1.15,2013-07-16 06:52:00,
2013-07-16 02:57:00,75.8,72.0,30.24,NNE,15,0.0,0.0,88,0.00,,,0.00,0,Wunderground v.1.15,2013-07-16 06:57:00,
2013-07-16 03:02:00,75.7,71.9,30.24,NNE,15,1.0,2.0,88,0.00,,,0.00,0,Wunderground v.1.15,2013-07-16 07:02:00,
2013-07-16 03:07:00,75.7,71.6,30.24,North,360,0.0,2.0,87,0.00,,,0.00,0,Wunderground v.1.15,2013-07-16 07:07:00,
2013-07-16 03:12:00,75.7,71.6,30.24,North,360,0.0,1.0,87,0.00,,,0.00,0,Wunderground v.1.15,2013-07-16 07:12:00,
2013-07-16 03:17:00,75.8,71.0,30.24,West,279,0.0,5.0,85,0.00,,,0.00,0,Wunderground v.1.15,2013-07-16 07:17:00,
2013-07-16 03:22:00,75.9,71.1,30.24,West,261,0.0,2.0,85,0.00,,,0.00,0,Wunderground v.1.15,2013-07-16 07:22:00,
2013-07-16 03:27:00,76.1,70.9,30.24,NW,306,0.0,3.0,84,0.00,,,0.00,0,Wunderground v.1.15,2013-07-16 07:27:00,
2013-07-16 03:32:00,76.2,71.0,30.24,NW,306,0.0,1.0,84,0.00,,,0.00,0,Wunderground v.1.15,2013-07-16 07:32:00,
2013-07-16 03:37:00,76.3,70.8,30.24,WNW,297,0.0,3.0,83,0.00,,,0.00,0,Wunderground v.1.15,2013-07-16 07:37:00,
2013-07-16 03:42:00,76.4,70.5,30.24,NNE,18,0.0,2.0,82,0.00,,,0.00,0,Wunderground v.1.15,2013-07-16 07:42:00,
2013-07-16 03:47:00,76.5,70.2,30.24,WNW,300,0.0,2.0,81,0.00,,,0.00,0,Wunderground v.1.15,2013-07-16 07:47:00,
2013-07-16 03:52:00,76.6,70.3,30.24,WNW,300,0.0,1.0,81,0.00,,,0.00,0,Wunderground v.1.15,2013-07-16 07:52:00,
2013-07-16 03:57:00,76.7,70.4,30.24,NW,316,0.0,2.0,81,0.00,,,0.00,0,Wunderground v.1.15,2013-07-16 07:57:00,
2013-07-16 04:02:00,76.7,70.4,30.24,NW,315,0.0,1.0,81,0.00,,,0.00,0,Wunderground v.1.15,2013-07-16 08:02:00,
2013-07-16 04:08:00,76.7,70.1,30.24,NW,315,0.0,1.0,80,0.00,,,0.00,0,Wunderground v.1.15,2013-07-16 08:08:00,
2013-07-16 04:14:00,76.7,70.4,30.24,NW,315,0.0,2.0,81,0.00,,,0.00,0,Wunderground v.1.15,2013-07-16 08:14:00,
2013-07-16 04:19:00,76.6,70.3,30.24,NE,42,1.0,2.0,81,0.00,,,0.00,0,Wunderground v.1.15,2013-07-16 08:19:00,
2013-07-16 04:24:00,76.6,70.0,30.24,North,360,0.0,2.0,80,0.00,,,0.00,0,Wunderground v.1.15,2013-07-16 08:24:00,
2013-07-16 04:29:00,76.5,69.9,30.24,NNW,333,0.0,3.0,80,0.00,,,0.00,0,Wunderground v.1.15,2013-07-16 08:29:00,
2013-07-16 04:34:00,76.4,69.8,30.24,NNW,329,0.0,3.0,80,0.00,,,0.00,0,Wunderground v.1.15,2013-07-16 08:34:00,
2013-07-16 04:39:00,76.3,69.3,30.24,WNW,288,0.0,3.0,79,0.00,,,0.00,0,Wunderground v.1.15,2013-07-16 08:39:00,
2013-07-16 04:44:00,76.3,69.3,30.24,NW,326,0.0,3.0,79,0.00,,,0.00,0,Wunderground v.1.15,2013-07-16 08:44:00,
2013-07-16 04:49:00,76.2,69.2,30.24,NW,326,0.0,3.0,79,0.00,,,0.00,0,Wunderground v.1.15,2013-07-16 08:49:00,
2013-07-16 04:54:00,76.2,69.2,30.24,NW,326,0.0,2.0,79,0.00,,,0.00,0,Wunderground v.1.15,2013-07-16 08:54:00,
2013-07-16 04:59:00,76.1,69.1,30.24,WNW,291,0.0,3.0,79,0.00,,,0.00,0,Wunderground v.1.15,2013-07-16 08:59:00,
2013-07-16 05:04:00,76.1,69.1,30.25,WNW,290,0.0,1.0,79,0.00,,,0.00,0,Wunderground v.1.15,2013-07-16 09:04:00,
2013-07-16 05:09:00,76.1,69.1,30.25,NW,318,1.0,2.0,79,0.00,,,0.00,0,Wunderground v.1.15,2013-07-16 09:09:00,
2013-07-16 05:14:00,76.0,69.0,30.25,NW,318,0.0,2.0,79,0.00,,,0.00,0,Wunderground v.1.15,2013-07-16 09:14:00,
2013-07-16 05:19:00,75.9,68.9,30.25,NW,318,0.0,2.0,79,0.00,,,0.00,0,Wunderground v.1.15,2013-07-16 09:19:00,
2013-07-16 05:24:00,75.9,68.9,30.25,NW,318,0.0,1.0,79,0.00,,,0.00,0,Wunderground v.1.15,2013-07-16 09:24:00,
2013-07-16 05:29:00,75.8,68.8,30.25,NW,318,0.0,2.0,79,0.00,,,0.00,0,Wunderground v.1.15,2013-07-16 09:29:00,
2013-07-16 05:34:00,75.7,69.1,30.25,NW,318,0.0,1.0,80,0.00,,,0.00,0,Wunderground v.1.15,2013-07-16 09:34:00,
2013-07-16 05:39:00,75.6,68.6,30.25,North,5,1.0,1.0,79,0.00,,,0.00,0,Wunderground v.1.15,2013-07-16 09:39:00,
2013-07-16 05:44:00,75.6,69.0,30.25,North,355,0.0,1.0,80,0.00,,,0.00,5,Wunderground v.1.15,2013-07-16 09:44:00,
2013-07-16 05:50:00,75.5,68.9,30.26,West,261,0.0,3.0,80,0.00,,,0.00,7,Wunderground v.1.15,2013-07-16 09:50:00,
2013-07-16 05:55:00,75.4,68.8,30.26,West,261,1.0,2.0,80,0.00,,,0.00,9,Wunderground v.1.15,2013-07-16 09:55:00,
2013-07-16 06:00:00,75.3,68.7,30.26,NNE,16,0.0,2.0,80,0.00,,,0.00,12,Wunderground v.1.15,2013-07-16 10:00:00,
2013-07-16 06:05:00,75.2,68.6,30.26,North,11,0.0,1.0,80,0.00,,,0.00,14,Wunderground v.1.15,2013-07-16 10:05:00,
2013-07-16 06:10:00,75.2,68.6,30.26,NW,315,3.0,4.0,80,0.00,,,0.00,18,Wunderground v.1.15,2013-07-16 10:10:00,
2013-07-16 06:15:00,75.2,68.6,30.26,NW,319,0.0,4.0,80,0.00,,,0.00,19,Wunderground v.1.15,2013-07-16 10:15:00,
2013-07-16 06:20:00,75.1,68.5,30.26,NW,319,0.0,0.0,80,0.00,,,0.00,25,Wunderground v.1.15,2013-07-16 10:20:00,
2013-07-16 06:25:00,75.1,68.5,30.26,NW,313,0.0,3.0,80,0.00,,,0.00,28,Wunderground v.1.15,2013-07-16 10:25:00,
2013-07-16 06:31:00,75.2,68.6,30.27,NW,313,0.0,0.0,80,0.00,,,0.00,30,Wunderground v.1.15,2013-07-16 10:31:00,
2013-07-16 06:36:00,75.2,68.6,30.27,NW,313,0.0,1.0,80,0.00,,,0.00,33,Wunderground v.1.15,2013-07-16 10:36:00,
2013-07-16 06:41:00,75.2,68.6,30.27,NNW,340,1.0,3.0,80,0.00,,,0.00,39,Wunderground v.1.15,2013-07-16 10:41:00,
2013-07-16 06:46:00,75.4,68.8,30.27,NNW,340,0.0,3.0,80,0.00,,,0.00,39,Wunderground v.1.15,2013-07-16 10:46:00,
2013-07-16 06:51:00,75.4,69.2,30.27,NNW,343,0.0,0.0,81,0.00,,,0.00,42,Wunderground v.1.15,2013-07-16 10:51:00,
2013-07-16 06:56:00,75.4,69.2,30.27,WNW,292,0.0,2.0,81,0.00,,,0.00,46,Wunderground v.1.15,2013-07-16 10:56:00,
2013-07-16 07:01:00,75.6,69.0,30.27,WNW,296,0.0,4.0,80,0.00,,,0.00,47,Wunderground v.1.15,2013-07-16 11:01:00,
2013-07-16 07:06:00,75.8,69.2,30.27,NE,37,0.0,4.0,80,0.00,,,0.00,49,Wunderground v.1.15,2013-07-16 11:06:00,
2013-07-16 07:11:00,75.8,69.2,30.27,NNW,340,0.0,1.0,80,0.00,,,0.00,51,Wunderground v.1.15,2013-07-16 11:11:00,
2013-07-16 07:16:00,75.9,69.3,30.27,North,5,0.0,2.0,80,0.00,,,0.00,54,Wunderground v.1.15,2013-07-16 11:16:00,
2013-07-16 07:21:00,76.1,69.1,30.27,NNW,329,0.0,1.0,79,0.00,,,0.00,91,Wunderground v.1.15,2013-07-16 11:21:00,
2013-07-16 07:26:00,76.3,68.9,30.27,North,355,1.0,4.0,78,0.00,,,0.00,211,Wunderground v.1.15,2013-07-16 11:26:00,
2013-07-16 07:31:00,76.7,69.3,30.27,North,350,0.0,4.0,78,0.00,,,0.00,227,Wunderground v.1.15,2013-07-16 11:31:00,
2013-07-16 07:36:00,77.2,69.4,30.27,NNW,342,0.0,4.0,77,0.00,,,0.00,244,Wunderground v.1.15,2013-07-16 11:36:00,
2013-07-16 07:41:00,77.6,69.8,30.28,NE,42,2.0,4.0,77,0.00,,,0.00,255,Wunderground v.1.15,2013-07-16 11:41:00,
2013-07-16 07:46:00,77.8,69.6,30.28,NW,306,2.0,4.0,76,0.00,,,0.00,267,Wunderground v.1.15,2013-07-16 11:46:00,
2013-07-16 07:51:00,78.2,69.6,30.28,North,355,1.0,2.0,75,0.00,,,0.00,281,Wunderground v.1.15,2013-07-16 11:51:00,
2013-07-16 07:56:00,78.4,69.8,30.28,NE,42,1.0,5.0,75,0.00,,,0.00,297,Wunderground v.1.15,2013-07-16 11:56:00,
2013-07-16 08:01:00,78.6,69.6,30.28,NNE,29,1.0,1.0,74,0.00,,,0.00,311,Wunderground v.1.15,2013-07-16 12:01:00,
2013-07-16 08:06:00,79.0,69.6,30.28,NNW,345,3.0,5.0,73,0.00,,,0.00,329,Wunderground v.1.15,2013-07-16 12:06:00,
2013-07-16 08:11:00,79.4,70.0,30.28,WNW,300,2.0,2.0,73,0.00,,,0.00,345,Wunderground v.1.15,2013-07-16 12:11:00,
2013-07-16 08:16:00,79.7,70.3,30.29,NE,39,0.0,3.0,73,0.00,,,0.00,357,Wunderground v.1.15,2013-07-16 12:16:00,
2013-07-16 08:21:00,80.0,70.2,30.28,NNW,346,0.0,1.0,72,0.00,,,0.00,371,Wunderground v.1.15,2013-07-16 12:21:00,
2013-07-16 08:26:00,80.3,69.6,30.29,NE,53,3.0,5.0,70,0.00,,,0.00,385,Wunderground v.1.15,2013-07-16 12:26:00,
2013-07-16 08:31:00,80.5,70.2,30.29,NNW,332,0.0,3.0,71,0.00,,,0.00,401,Wunderground v.1.15,2013-07-16 12:31:00,
2013-07-16 08:36:00,81.0,70.3,30.29,NW,317,2.0,4.0,70,0.00,,,0.00,415,Wunderground v.1.15,2013-07-16 12:36:00,
2013-07-16 08:41:00,81.2,69.6,30.29,NW,309,2.0,3.0,68,0.00,,,0.00,432,Wunderground v.1.15,2013-07-16 12:41:00,
2013-07-16 08:46:00,81.4,70.2,30.29,NNW,333,2.0,6.0,69,0.00,,,0.00,445,Wunderground v.1.15,2013-07-16 12:46:00,
2013-07-16 08:51:00,81.6,70.4,30.28,ENE,64,1.0,2.0,69,0.00,,,0.00,461,Wunderground v.1.15,2013-07-16 12:51:00,
2013-07-16 08:56:00,81.7,70.1,30.28,North,5,0.0,4.0,68,0.00,,,0.00,475,Wunderground v.1.15,2013-07-16 12:56:00,
2013-07-16 09:01:00,82.0,70.4,30.28,ENE,61,0.0,4.0,68,0.00,,,0.00,489,Wunderground v.1.15,2013-07-16 13:01:00,
2013-07-16 09:06:00,82.2,71.0,30.28,NW,322,0.0,4.0,69,0.00,,,0.00,503,Wunderground v.1.15,2013-07-16 13:06:00,
2013-07-16 09:11:00,82.5,70.4,30.28,WSW,257,1.0,4.0,67,0.00,,,0.00,517,Wunderground v.1.15,2013-07-16 13:11:00,
2013-07-16 09:16:00,82.3,70.7,30.28,NE,46,4.0,6.0,68,0.00,,,0.00,529,Wunderground v.1.15,2013-07-16 13:16:00,
2013-07-16 09:21:00,83.0,71.3,30.28,NNW,333,0.0,2.0,68,0.00,,,0.00,545,Wunderground v.1.15,2013-07-16 13:21:00,
2013-07-16 09:26:00,83.4,71.3,30.28,North,355,2.0,4.0,67,0.00,,,0.00,559,Wunderground v.1.15,2013-07-16 13:26:00,
2013-07-16 09:31:00,84.0,71.4,30.28,North,355,2.0,2.0,66,0.00,,,0.00,571,Wunderground v.1.15,2013-07-16 13:31:00,
2013-07-16 09:36:00,84.2,71.2,30.28,WNW,298,2.0,4.0,65,0.00,,,0.00,584,Wunderground v.1.15,2013-07-16 13:36:00,
2013-07-16 09:41:00,84.4,71.3,30.28,North,350,0.0,2.0,65,0.00,,,0.00,596,Wunderground v.1.15,2013-07-16 13:41:00,
2013-07-16 09:46:00,84.8,71.7,30.28,NW,319,0.0,3.0,65,0.00,,,0.00,608,Wunderground v.1.15,2013-07-16 13:46:00,
2013-07-16 09:51:00,84.8,70.8,30.28,NNE,28,3.0,4.0,63,0.00,,,0.00,622,Wunderground v.1.15,2013-07-16 13:51:00,
2013-07-16 09:56:00,84.5,70.5,30.28,NNW,340,3.0,6.0,63,0.00,,,0.00,631,Wunderground v.1.15,2013-07-16 13:56:00,
2013-07-16 10:02:00,84.7,70.7,30.28,NE,42,1.0,4.0,63,0.00,,,0.00,647,Wunderground v.1.15,2013-07-16 14:02:00,
2013-07-16 10:07:00,84.8,71.3,30.28,North,360,1.0,6.0,64,0.00,,,0.00,659,Wunderground v.1.15,2013-07-16 14:07:00,
2013-07-16 10:12:00,85.2,71.2,30.27,NE,56,1.0,5.0,63,0.00,,,0.00,670,Wunderground v.1.15,2013-07-16 14:12:00,
2013-07-16 10:17:00,85.3,71.3,30.28,North,360,3.0,5.0,63,0.00,,,0.00,682,Wunderground v.1.15,2013-07-16 14:17:00,
2013-07-16 10:22:00,85.3,70.8,30.28,NNE,24,2.0,3.0,62,0.00,,,0.00,693,Wunderground v.1.15,2013-07-16 14:22:00,
2013-07-16 10:27:00,85.9,71.4,30.28,NNW,348,2.0,5.0,62,0.00,,,0.00,701,Wunderground v.1.15,2013-07-16 14:27:00,
2013-07-16 10:32:00,86.3,71.3,30.28,NNE,17,2.0,4.0,61,0.00,,,0.00,712,Wunderground v.1.15,2013-07-16 14:32:00,
2013-07-16 10:37:00,86.6,71.5,30.28,NNW,348,0.0,4.0,61,0.00,,,0.00,724,Wunderground v.1.15,2013-07-16 14:37:00,
2013-07-16 10:42:00,87.2,72.1,30.27,WSW,250,1.0,2.0,61,0.00,,,0.00,729,Wunderground v.1.15,2013-07-16 14:42:00,
2013-07-16 10:47:00,87.3,71.2,30.27,NNE,28,3.0,4.0,59,0.00,,,0.00,740,Wunderground v.1.15,2013-07-16 14:47:00,
2013-07-16 10:52:00,87.5,70.9,30.27,NE,41,0.0,6.0,58,0.00,,,0.00,751,Wunderground v.1.15,2013-07-16 14:52:00,
2013-07-16 10:57:00,87.8,70.7,30.27,NNE,32,4.0,7.0,57,0.00,,,0.00,759,Wunderground v.1.15,2013-07-16 14:57:00,
2013-07-16 11:02:00,87.4,70.8,30.27,NW,313,0.0,4.0,58,0.00,,,0.00,770,Wunderground v.1.15,2013-07-16 15:02:00,
2013-07-16 11:07:00,87.9,70.8,30.27,NNE,13,2.0,7.0,57,0.00,,,0.00,777,Wunderground v.1.15,2013-07-16 15:07:00,
2013-07-16 11:12:00,87.9,70.2,30.27,NE,41,2.0,5.0,56,0.00,,,0.00,784,Wunderground v.1.15,2013-07-16 15:12:00,
2013-07-16 11:17:00,87.7,69.5,30.27,NE,48,3.0,6.0,55,0.00,,,0.00,789,Wunderground v.1.15,2013-07-16 15:17:00,
2013-07-16 11:22:00,88.9,71.7,30.27,NNW,330,1.0,2.0,57,0.00,,,0.00,800,Wunderground v.1.15,2013-07-16 15:22:00,
2013-07-16 11:27:00,89.2,70.9,30.26,WNW,290,1.0,5.0,55,0.00,,,0.00,805,Wunderground v.1.15,2013-07-16 15:27:00,
2013-07-16 11:33:00,89.1,70.8,30.26,NE,49,1.0,4.0,55,0.00,,,0.00,812,Wunderground v.1.15,2013-07-16 15:33:00,
2013-07-16 11:38:00,89.0,70.2,30.26,NW,319,4.0,6.0,54,0.00,,,0.00,817,Wunderground v.1.15,2013-07-16 15:38:00,
2013-07-16 11:43:00,89.3,70.5,30.26,NNW,327,4.0,6.0,54,0.00,,,0.00,826,Wunderground v.1.15,2013-07-16 15:43:00,
2013-07-16 11:48:00,89.3,70.5,30.26,WNW,285,2.0,6.0,54,0.00,,,0.00,830,Wunderground v.1.15,2013-07-16 15:48:00,
2013-07-16 11:53:00,89.2,70.4,30.26,NNE,16,3.0,7.0,54,0.00,,,0.00,835,Wunderground v.1.15,2013-07-16 15:53:00,
2013-07-16 11:58:00,89.2,70.4,30.26,NE,39,0.0,7.0,54,0.00,,,0.00,837,Wunderground v.1.15,2013-07-16 15:58:00,
2013-07-16 12:03:00,90.8,71.3,30.26,ENE,62,2.0,2.0,53,0.00,,,0.00,842,Wunderground v.1.15,2013-07-16 16:03:00,
2013-07-16 12:08:00,90.5,71.0,30.26,North,5,3.0,8.0,53,0.00,,,0.00,846,Wunderground v.1.15,2013-07-16 16:08:00,
2013-07-16 12:13:00,90.4,70.4,30.26,NW,304,0.0,7.0,52,0.00,,,0.00,849,Wunderground v.1.15,2013-07-16 16:13:00,
2013-07-16 12:18:00,90.6,72.2,30.26,NW,316,0.0,7.0,55,0.00,,,0.00,851,Wunderground v.1.15,2013-07-16 16:18:00,
2013-07-16 12:23:00,90.3,70.8,30.26,NNW,329,5.0,8.0,53,0.00,,,0.00,854,Wunderground v.1.15,2013-07-16 16:23:00,
2013-07-16 12:28:00,90.9,69.7,30.26,West,265,1.0,8.0,50,0.00,,,0.00,856,Wunderground v.1.15,2013-07-16 16:28:00,
2013-07-16 12:34:00,91.0,69.8,30.26,NE,38,5.0,7.0,50,0.00,,,0.00,860,Wunderground v.1.15,2013-07-16 16:34:00,
2013-07-16 12:39:00,91.0,69.8,30.25,NE,48,3.0,8.0,50,0.00,,,0.00,863,Wunderground v.1.15,2013-07-16 16:39:00,
2013-07-16 12:44:00,91.2,69.4,30.25,West,278,2.0,5.0,49,0.00,,,0.00,863,Wunderground v.1.15,2013-07-16 16:44:00,
2013-07-16 12:49:00,92.0,70.1,30.25,North,11,1.0,7.0,49,0.00,,,0.00,868,Wunderground v.1.15,2013-07-16 16:49:00,
2013-07-16 12:54:00,91.8,68.7,30.25,North,5,5.0,9.0,47,0.00,,,0.00,863,Wunderground v.1.15,2013-07-16 16:54:00,
2013-07-16 12:59:00,91.4,69.0,30.25,WNW,303,0.0,9.0,48,0.00,,,0.00,863,Wunderground v.1.15,2013-07-16 16:59:00,
2013-07-16 13:04:00,92.0,68.9,30.25,West,273,2.0,7.0,47,0.00,,,0.00,861,Wunderground v.1.15,2013-07-16 17:04:00,
2013-07-16 13:10:00,91.6,68.5,30.25,NNE,17,5.0,5.0,47,0.00,,,0.00,865,Wunderground v.1.15,2013-07-16 17:10:00,
2013-07-16 13:15:00,91.8,69.3,30.25,NE,34,2.0,9.0,48,0.00,,,0.00,860,Wunderground v.1.15,2013-07-16 17:15:00,
2013-07-16 13:20:00,92.2,69.7,30.25,NW,324,2.0,3.0,48,0.00,,,0.00,858,Wunderground v.1.15,2013-07-16 17:20:00,
2013-07-16 13:25:00,92.4,68.6,30.25,West,269,1.0,7.0,46,0.00,,,0.00,863,Wunderground v.1.15,2013-07-16 17:25:00,
2013-07-16 13:30:00,91.8,66.8,30.25,NNE,13,3.0,3.0,44,0.00,,,0.00,858,Wunderground v.1.15,2013-07-16 17:30:00,
2013-07-16 13:35:00,92.4,67.3,30.25,NW,318,1.0,7.0,44,0.00,,,0.00,854,Wunderground v.1.15,2013-07-16 17:35:00,
2013-07-16 13:40:00,92.6,69.4,30.25,NNW,327,4.0,4.0,47,0.00,,,0.00,851,Wunderground v.1.15,2013-07-16 17:40:00,
2013-07-16 13:45:00,92.2,67.8,30.25,NNE,14,2.0,9.0,45,0.00,,,0.00,858,Wunderground v.1.15,2013-07-16 17:45:00,
2013-07-16 13:50:00,91.5,68.4,30.25,WSW,256,2.0,3.0,47,0.00,,,0.00,849,Wunderground v.1.15,2013-07-16 17:50:00,
2013-07-16 13:55:00,91.4,69.0,30.25,NE,35,6.0,7.0,48,0.00,,,0.00,838,Wunderground v.1.15,2013-07-16 17:55:00,
2013-07-16 14:00:00,91.7,69.2,30.24,NW,306,1.0,3.0,48,0.00,,,0.00,837,Wunderground v.1.15,2013-07-16 18:00:00,
2013-07-16 14:05:00,93.0,71.6,30.24,East,80,1.0,3.0,50,0.00,,,0.00,830,Wunderground v.1.15,2013-07-16 18:05:00,
2013-07-16 14:10:00,93.0,68.5,30.24,NE,40,7.0,7.0,45,0.00,,,0.00,831,Wunderground v.1.15,2013-07-16 18:10:00,
2013-07-16 14:15:00,92.3,68.5,30.24,WNW,286,2.0,7.0,46,0.00,,,0.00,821,Wunderground v.1.15,2013-07-16 18:15:00,
2013-07-16 14:20:00,92.4,68.6,30.24,NE,51,3.0,4.0,46,0.00,,,0.00,812,Wunderground v.1.15,2013-07-16 18:20:00,
2013-07-16 14:25:00,92.1,68.3,30.24,NNW,344,5.0,8.0,46,0.00,,,0.00,812,Wunderground v.1.15,2013-07-16 18:25:00,
2013-07-16 14:31:00,92.2,68.4,30.24,NNE,22,2.0,6.0,46,0.00,,,0.00,805,Wunderground v.1.15,2013-07-16 18:31:00,
2013-07-16 14:36:00,92.1,69.0,30.24,North,360,4.0,7.0,47,0.00,,,0.00,796,Wunderground v.1.15,2013-07-16 18:36:00,
2013-07-16 14:41:00,91.8,68.7,30.24,ENE,71,2.0,5.0,47,0.00,,,0.00,793,Wunderground v.1.15,2013-07-16 18:41:00,
2013-07-16 14:46:00,92.0,69.5,30.24,North,351,1.0,5.0,48,0.00,,,0.00,780,Wunderground v.1.15,2013-07-16 18:46:00,
2013-07-16 14:51:00,91.9,68.2,30.24,NNW,338,0.0,6.0,46,0.00,,,0.00,773,Wunderground v.1.15,2013-07-16 18:51:00,
2013-07-16 14:56:00,92.2,69.7,30.24,NW,313,1.0,6.0,48,0.00,,,0.00,761,Wunderground v.1.15,2013-07-16 18:56:00,
2013-07-16 15:01:00,92.4,69.2,30.24,NNE,15,1.0,3.0,47,0.00,,,0.00,712,Wunderground v.1.15,2013-07-16 19:01:00,
2013-07-16 15:06:00,92.0,68.9,30.24,NW,325,5.0,8.0,47,0.00,,,0.00,320,Wunderground v.1.15,2013-07-16 19:06:00,
2013-07-16 15:11:00,91.5,68.4,30.24,NE,35,4.0,6.0,47,0.00,,,0.00,174,Wunderground v.1.15,2013-07-16 19:11:00,
2013-07-16 15:16:00,91.5,69.0,30.24,East,100,2.0,7.0,48,0.00,,,0.00,97,Wunderground v.1.15,2013-07-16 19:16:00,
2013-07-16 15:21:00,91.8,69.3,30.24,NE,45,6.0,6.0,48,0.00,,,0.00,114,Wunderground v.1.15,2013-07-16 19:21:00,
2013-07-16 15:26:00,91.6,69.1,30.24,NE,40,0.0,7.0,48,0.00,,,0.00,77,Wunderground v.1.15,2013-07-16 19:26:00,
2013-07-16 15:31:00,91.3,68.9,30.24,NNW,335,4.0,6.0,48,0.00,,,0.00,83,Wunderground v.1.15,2013-07-16 19:31:00,
2013-07-16 15:36:00,91.4,69.6,30.24,NNE,13,3.0,6.0,49,0.00,,,0.00,88,Wunderground v.1.15,2013-07-16 19:36:00,
2013-07-16 15:41:00,91.3,68.9,30.23,NE,50,3.0,7.0,48,0.00,,,0.00,98,Wunderground v.1.15,2013-07-16 19:41:00,
2013-07-16 15:46:00,91.1,69.3,30.23,ENE,70,2.0,7.0,49,0.00,,,0.00,90,Wunderground v.1.15,2013-07-16 19:46:00,
2013-07-16 15:51:00,91.2,68.8,30.23,NNE,26,3.0,8.0,48,0.00,,,0.00,84,Wunderground v.1.15,2013-07-16 19:51:00,
2013-07-16 15:56:00,91.0,68.0,30.23,NNW,333,2.0,8.0,47,0.00,,,0.00,169,Wunderground v.1.15,2013-07-16 19:56:00,
2013-07-16 16:01:00,91.0,68.6,30.23,NW,320,5.0,5.0,48,0.00,,,0.00,179,Wunderground v.1.15,2013-07-16 20:01:00,
2013-07-16 16:06:00,90.8,69.0,30.23,West,263,1.0,8.0,49,0.00,,,0.00,72,Wunderground v.1.15,2013-07-16 20:06:00,
2013-07-16 16:11:00,90.6,67.6,30.23,North,350,1.0,4.0,47,0.00,,,0.00,148,Wunderground v.1.15,2013-07-16 20:11:00,
2013-07-16 16:16:00,90.8,67.8,30.23,NNW,344,0.0,5.0,47,0.00,,,0.00,116,Wunderground v.1.15,2013-07-16 20:16:00,
2013-07-16 16:21:00,90.6,67.6,30.23,NE,40,2.0,8.0,47,0.00,,,0.00,156,Wunderground v.1.15,2013-07-16 20:21:00,
2013-07-16 16:26:00,90.1,67.8,30.23,NNE,27,3.0,8.0,48,0.00,,,0.00,63,Wunderground v.1.15,2013-07-16 20:26:00,
2013-07-16 16:31:00,90.3,67.9,30.23,North,355,7.0,7.0,48,0.00,,,0.00,63,Wunderground v.1.15,2013-07-16 20:31:00,
2013-07-16 16:36:00,90.5,68.1,30.23,WNW,293,2.0,7.0,48,0.00,,,0.00,72,Wunderground v.1.15,2013-07-16 20:36:00,
2013-07-16 16:42:00,90.4,67.4,30.23,NNW,328,1.0,8.0,47,0.00,,,0.00,237,Wunderground v.1.15,2013-07-16 20:42:00,
2013-07-16 16:47:00,90.6,68.2,30.23,WNW,285,1.0,8.0,48,0.00,,,0.00,345,Wunderground v.1.15,2013-07-16 20:47:00,
2013-07-16 16:52:00,90.6,68.2,30.23,NNE,13,2.0,5.0,48,0.00,,,0.00,60,Wunderground v.1.15,2013-07-16 20:52:00,
2013-07-16 16:57:00,90.6,68.8,30.23,NNE,19,1.0,6.0,49,0.00,,,0.00,58,Wunderground v.1.15,2013-07-16 20:57:00,
2013-07-16 17:02:00,90.6,67.6,30.23,North,9,6.0,7.0,47,0.00,,,0.00,56,Wunderground v.1.15,2013-07-16 21:02:00,
2013-07-16 17:07:00,90.4,68.0,30.22,NNE,33,8.0,9.0,48,0.00,,,0.00,56,Wunderground v.1.15,2013-07-16 21:07:00,
2013-07-16 17:12:00,90.4,68.0,30.22,ENE,57,0.0,4.0,48,0.00,,,0.00,54,Wunderground v.1.15,2013-07-16 21:12:00,
2013-07-16 17:17:00,90.5,68.1,30.22,North,351,0.0,6.0,48,0.00,,,0.00,54,Wunderground v.1.15,2013-07-16 21:17:00,
2013-07-16 17:22:00,90.3,67.3,30.22,NE,47,2.0,4.0,47,0.00,,,0.00,53,Wunderground v.1.15,2013-07-16 21:22:00,
2013-07-16 17:27:00,90.2,66.6,30.22,NNW,331,2.0,5.0,46,0.00,,,0.00,53,Wunderground v.1.15,2013-07-16 21:27:00,
2013-07-16 17:32:00,90.4,67.4,30.22,NE,50,1.0,9.0,47,0.00,,,0.00,56,Wunderground v.1.15,2013-07-16 21:32:00,
2013-07-16 17:37:00,90.3,67.3,30.22,North,360,1.0,9.0,47,0.00,,,0.00,69,Wunderground v.1.15,2013-07-16 21:37:00,
2013-07-16 17:42:00,90.1,67.2,30.22,NE,44,4.0,4.0,47,0.00,,,0.00,239,Wunderground v.1.15,2013-07-16 21:42:00,
2013-07-16 17:47:00,89.8,67.5,30.22,East,91,0.0,7.0,48,0.00,,,0.00,318,Wunderground v.1.15,2013-07-16 21:47:00,
2013-07-16 17:52:00,89.7,68.0,30.22,NW,324,2.0,4.0,49,0.00,,,0.00,301,Wunderground v.1.15,2013-07-16 21:52:00,
2013-07-16 17:57:00,89.7,68.0,30.22,North,5,2.0,5.0,49,0.00,,,0.00,306,Wunderground v.1.15,2013-07-16 21:57:00,
2013-07-16 18:02:00,89.8,69.3,30.22,NW,326,0.0,3.0,51,0.00,,,0.00,100,Wunderground v.1.15,2013-07-16 22:02:00,
2013-07-16 18:07:00,89.8,68.7,30.22,NE,42,1.0,5.0,50,0.00,,,0.00,295,Wunderground v.1.15,2013-07-16 22:07:00,
2013-07-16 18:12:00,89.6,68.5,30.22,NW,323,4.0,4.0,50,0.00,,,0.00,142,Wunderground v.1.15,2013-07-16 22:12:00,
2013-07-16 18:17:00,89.5,68.4,30.22,NNE,25,1.0,4.0,50,0.00,,,0.00,267,Wunderground v.1.15,2013-07-16 22:17:00,
2013-07-16 18:22:00,89.4,67.7,30.22,NNW,333,0.0,3.0,49,0.00,,,0.00,47,Wunderground v.1.15,2013-07-16 22:22:00,
2013-07-16 18:27:00,89.4,67.7,30.22,NW,319,0.0,3.0,49,0.00,,,0.00,44,Wunderground v.1.15,2013-07-16 22:27:00,
2013-07-16 18:32:00,89.3,68.2,30.22,NE,38,1.0,3.0,50,0.00,,,0.00,44,Wunderground v.1.15,2013-07-16 22:32:00,
2013-07-16 18:37:00,89.3,68.2,30.22,North,350,1.0,3.0,50,0.00,,,0.00,42,Wunderground v.1.15,2013-07-16 22:37:00,
2013-07-16 18:42:00,89.2,68.1,30.22,North,9,0.0,4.0,50,0.00,,,0.00,42,Wunderground v.1.15,2013-07-16 22:42:00,
2013-07-16 18:47:00,89.0,67.9,30.22,ENE,71,1.0,4.0,50,0.00,,,0.00,40,Wunderground v.1.15,2013-07-16 22:47:00,
2013-07-16 18:53:00,88.8,68.3,30.22,NNW,344,1.0,2.0,51,0.00,,,0.00,39,Wunderground v.1.15,2013-07-16 22:53:00,
2013-07-16 18:58:00,88.5,68.1,30.22,North,360,1.0,3.0,51,0.00,,,0.00,37,Wunderground v.1.15,2013-07-16 22:58:00,
2013-07-16 19:03:00,88.3,68.4,30.22,NE,53,0.0,3.0,52,0.00,,,0.00,35,Wunderground v.1.15,2013-07-16 23:03:00,
2013-07-16 19:08:00,88.1,68.8,30.22,NE,47,1.0,3.0,53,0.00,,,0.00,35,Wunderground v.1.15,2013-07-16 23:08:00,
2013-07-16 19:13:00,88.0,69.8,30.22,NE,42,0.0,1.0,55,0.00,,,0.00,33,Wunderground v.1.15,2013-07-16 23:13:00,
2013-07-16 19:18:00,87.8,69.6,30.22,NE,42,0.0,1.0,55,0.00,,,0.00,32,Wunderground v.1.15,2013-07-16 23:18:00,
2013-07-16 19:23:00,87.7,70.6,30.23,NE,42,0.0,0.0,57,0.00,,,0.00,32,Wunderground v.1.15,2013-07-16 23:23:00,
2013-07-16 19:28:00,87.5,71.4,30.23,NE,42,0.0,0.0,59,0.00,,,0.00,28,Wunderground v.1.15,2013-07-16 23:28:00,
2013-07-16 19:33:00,87.2,71.1,30.23,NE,42,0.0,1.0,59,0.00,,,0.00,30,Wunderground v.1.15,2013-07-16 23:33:00,
2013-07-16 19:38:00,86.8,71.7,30.23,NE,42,0.0,1.0,61,0.00,,,0.00,23,Wunderground v.1.15,2013-07-16 23:38:00,
2013-07-16 19:43:00,86.5,72.4,30.23,NE,42,0.0,1.0,63,0.00,,,0.00,21,Wunderground v.1.15,2013-07-16 23:43:00,
2013-07-16 19:48:00,86.0,71.9,30.23,NE,42,0.0,1.0,63,0.00,,,0.00,19,Wunderground v.1.15,2013-07-16 23:48:00,
2013-07-16 19:54:00,85.8,71.7,30.23,NE,42,0.0,0.0,63,0.00,,,0.00,16,Wunderground v.1.15,2013-07-16 23:54:00,
2013-07-16 19:59:00,85.6,72.0,30.23,NE,42,0.0,0.0,64,0.00,,,0.00,14,Wunderground v.1.15,2013-07-16 23:59:00,
2013-07-16 20:04:00,85.3,71.7,30.23,NE,42,0.0,0.0,64,0.00,,,0.00,11,Wunderground v.1.15,2013-07-17 00:04:00,
2013-07-16 20:09:00,85.0,71.0,30.23,NE,42,0.0,0.0,63,0.00,,,0.00,7,Wunderground v.1.15,2013-07-17 00:09:00,
2013-07-16 20:14:00,84.7,70.7,30.23,NE,42,0.0,0.0,63,0.00,,,0.00,5,Wunderground v.1.15,2013-07-17 00:14:00,
2013-07-16 20:19:00,84.4,70.9,30.23,NE,42,0.0,0.0,64,0.00,,,0.00,0,Wunderground v.1.15,2013-07-17 00:19:00,
2013-07-16 20:24:00,84.1,69.7,30.23,NE,42,0.0,0.0,62,0.00,,,0.00,0,Wunderground v.1.15,2013-07-17 00:24:00,
2013-07-16 20:29:00,83.9,70.4,30.23,NE,42,0.0,0.0,64,0.00,,,0.00,0,Wunderground v.1.15,2013-07-17 00:29:00,
2013-07-16 20:34:00,83.6,70.1,30.23,NE,42,0.0,0.0,64,0.00,,,0.00,0,Wunderground v.1.15,2013-07-17 00:34:00,
2013-07-16 20:39:00,83.3,70.3,30.23,NE,42,0.0,0.0,65,0.00,,,0.00,0,Wunderground v.1.15,2013-07-17 00:39:00,
2013-07-16 20:44:00,83.0,70.5,30.23,NE,42,0.0,0.0,66,0.00,,,0.00,0,Wunderground v.1.15,2013-07-17 00:44:00,
2013-07-16 20:49:00,82.7,69.7,30.23,NE,42,0.0,0.0,65,0.00,,,0.00,0,Wunderground v.1.15,2013-07-17 00:49:00,
2013-07-16 20:54:00,82.5,69.5,30.23,NE,42,0.0,0.0,65,0.00,,,0.00,0,Wunderground v.1.15,2013-07-17 00:54:00,
2013-07-16 20:59:00,82.2,69.7,30.23,NE,42,0.0,0.0,66,0.00,,,0.00,0,Wunderground v.1.15,2013-07-17 00:59:00,
2013-07-16 21:04:00,82.0,69.5,30.24,NE,42,0.0,0.0,66,0.00,,,0.00,0,Wunderground v.1.15,2013-07-17 01:04:00,
2013-07-16 21:09:00,81.8,69.3,30.24,NE,42,0.0,0.0,66,0.00,,,0.00,0,Wunderground v.1.15,2013-07-17 01:09:00,
2013-07-16 21:14:00,81.6,69.1,30.24,NE,42,0.0,0.0,66,0.00,,,0.00,0,Wunderground v.1.15,2013-07-17 01:14:00,
2013-07-16 21:19:00,81.4,68.9,30.24,NE,42,0.0,0.0,66,0.00,,,0.00,0,Wunderground v.1.15,2013-07-17 01:19:00,
2013-07-16 21:24:00,81.2,69.2,30.24,NE,42,0.0,0.0,67,0.00,,,0.00,0,Wunderground v.1.15,2013-07-17 01:24:00,
2013-07-16 21:29:00,81.0,69.0,30.24,NE,42,0.0,0.0,67,0.00,,,0.00,0,Wunderground v.1.15,2013-07-17 01:29:00,
2013-07-16 21:34:00,80.9,68.9,30.25,NE,42,0.0,0.0,67,0.00,,,0.00,0,Wunderground v.1.15,2013-07-17 01:34:00,
2013-07-16 21:39:00,80.7,69.2,30.25,NE,42,0.0,0.0,68,0.00,,,0.00,0,Wunderground v.1.15,2013-07-17 01:39:00,
2013-07-16 21:44:00,80.5,69.0,30.25,NE,42,0.0,0.0,68,0.00,,,0.00,0,Wunderground v.1.15,2013-07-17 01:44:00,
2013-07-16 21:49:00,80.3,69.2,30.25,NE,42,0.0,0.0,69,0.00,,,0.00,0,Wunderground v.1.15,2013-07-17 01:49:00,
2013-07-16 21:54:00,80.1,69.4,30.25,NE,42,0.0,0.0,70,0.00,,,0.00,0,Wunderground v.1.15,2013-07-17 01:54:00,
2013-07-16 21:59:00,80.0,69.7,30.25,NE,42,0.0,0.0,71,0.00,,,0.00,0,Wunderground v.1.15,2013-07-17 01:59:00,
2013-07-16 22:04:00,79.8,69.1,30.25,NE,42,0.0,0.0,70,0.00,,,0.00,0,Wunderground v.1.15,2013-07-17 02:04:00,
2013-07-16 22:10:00,79.6,69.0,30.25,NE,42,0.0,0.0,70,0.00,,,0.00,0,Wunderground v.1.15,2013-07-17 02:10:00,
2013-07-16 22:15:00,79.5,68.9,30.25,NE,42,0.0,0.0,70,0.00,,,0.00,0,Wunderground v.1.15,2013-07-17 02:15:00,
2013-07-16 22:20:00,79.4,69.2,30.25,NE,42,0.0,0.0,71,0.00,,,0.00,0,Wunderground v.1.15,2013-07-17 02:20:00,
2013-07-16 22:25:00,79.2,69.0,30.25,NE,42,0.0,0.0,71,0.00,,,0.00,0,Wunderground v.1.15,2013-07-17 02:25:00,
2013-07-16 22:30:00,79.1,68.9,30.25,NE,42,0.0,0.0,71,0.00,,,0.00,0,Wunderground v.1.15,2013-07-17 02:30:00,
2013-07-16 22:35:00,78.9,68.7,30.25,NE,42,0.0,0.0,71,0.00,,,0.00,0,Wunderground v.1.15,2013-07-17 02:35:00,
2013-07-16 22:40:00,78.8,69.0,30.25,NE,42,0.0,0.0,72,0.00,,,0.00,0,Wunderground v.1.15,2013-07-17 02:40:00,
2013-07-16 22:45:00,78.7,68.9,30.25,NE,42,0.0,0.0,72,0.00,,,0.00,0,Wunderground v.1.15,2013-07-17 02:45:00,
2013-07-16 22:50:00,78.6,68.8,30.26,NE,42,0.0,0.0,72,0.00,,,0.00,0,Wunderground v.1.15,2013-07-17 02:50:00,
2013-07-16 22:55:00,78.5,68.7,30.25,NE,42,0.0,0.0,72,0.00,,,0.00,0,Wunderground v.1.15,2013-07-17 02:55:00,
2013-07-16 23:00:00,78.4,68.6,30.26,NE,42,0.0,0.0,72,0.00,,,0.00,0,Wunderground v.1.15,2013-07-17 03:00:00,
2013-07-16 23:05:00,78.3,68.5,30.26,NE,42,0.0,0.0,72,0.00,,,0.00,0,Wunderground v.1.15,2013-07-17 03:05:00,
2013-07-16 23:10:00,78.2,68.4,30.26,NE,42,0.0,0.0,72,0.00,,,0.00,0,Wunderground v.1.15,2013-07-17 03:10:00,
2013-07-16 23:15:00,78.2,68.4,30.25,NE,42,0.0,0.0,72,0.00,,,0.00,0,Wunderground v.1.15,2013-07-17 03:15:00,
2013-07-16 23:20:00,78.1,68.3,30.25,NE,42,0.0,0.0,72,0.00,,,0.00,0,Wunderground v.1.15,2013-07-17 03:20:00,
2013-07-16 23:25:00,78.0,68.2,30.25,NE,42,0.0,0.0,72,0.00,,,0.00,0,Wunderground v.1.15,2013-07-17 03:25:00,
2013-07-16 23:30:00,78.0,68.2,30.25,NE,42,0.0,0.0,72,0.00,,,0.00,0,Wunderground v.1.15,2013-07-17 03:30:00,
2013-07-16 23:35:00,78.0,68.6,30.25,NE,42,0.0,0.0,73,0.00,,,0.00,0,Wunderground v.1.15,2013-07-17 03:35:00,
2013-07-16 23:40:00,77.9,68.5,30.25,NE,42,0.0,0.0,73,0.00,,,0.00,0,Wunderground v.1.15,2013-07-17 03:40:00,
2013-07-16 23:45:00,77.9,68.5,30.25,NE,42,0.0,0.0,73,0.00,,,0.00,0,Wunderground v.1.15,2013-07-17 03:45:00,
2013-07-16 23:51:00,77.9,68.5,30.25,NE,42,0.0,0.0,73,0.00,,,0.00,0,Wunderground v.1.15,2013-07-17 03:51:00,
2013-07-16 23:56:00,77.8,68.8,30.25,NE,42,0.0,0.0,74,0.00,,,0.00,0,Wunderground v.1.15,2013-07-17 03:56:00,